User: anonymous   Login
Location: Ariel
(45.9570°N, 122.5700°W)
Time: 13:39:30
(UTC-07:00)
Language:

FO-29 - Orbit

View from above orbital plane
View from above orbital plane
View from above satellite
View from above satellite

Ground track
Ground track

The orbit data is extracted from the following two-line orbital elements,

1 24278U 96046B   19110.46924097 -.00000011  00000-0  23389-4 0  9993
2 24278  98.5285 271.9379 0350876  33.7653 328.5307 13.53090567119790
Epoch (UTC): 20 April 2019 11:15:42
Eccentricity: 0.0350876
inclination: 98.5285°
perigee height: 800 km
apogee height: 1322 km
right ascension of ascending node: 271.9379°
argument of perigee: 33.7653°
revolutions per day: 13.53090567
mean anomaly at epoch: 328.5307°
orbit number at epoch: 11979

The dashed part of the orbit path shows where the satellite is in the earth's shadow,  

DLR